TimeCDT,TemperatureF,Dew PointF,Humidity,Sea Level PressureIn,VisibilityMPH,Wind Direction,Wind SpeedMPH,Gust SpeedMPH,PrecipitationIn,Events,Conditions,WindDirDegrees,DateUTC
12:53 AM,68.0,61.0,78,30.02,7.0,South,4.6,-,N/A,,Clear,190,2013-07-05 05:53:00
1:53 AM,66.0,61.0,84,30.02,6.0,South,4.6,-,N/A,,Haze,180,2013-07-05 06:53:00
2:53 AM,64.9,61.0,87,30.01,5.0,South,5.8,-,N/A,,Clear,180,2013-07-05 07:53:00
3:53 AM,64.9,61.0,87,30.01,4.0,South,5.8,-,N/A,,Clear,190,2013-07-05 08:53:00
4:53 AM,64.9,61.0,87,30.01,4.0,South,5.8,-,N/A,,Clear,180,2013-07-05 09:53:00
5:32 AM,64.0,61.0,90,30.02,2.5,SSW,3.5,-,N/A,,Clear,200,2013-07-05 10:32:00
5:53 AM,64.0,62.1,93,30.02,2.5,Calm,Calm,-,N/A,,Clear,0,2013-07-05 10:53:00
6:02 AM,64.9,61.0,87,30.03,4.0,Calm,Calm,-,N/A,,Clear,0,2013-07-05 11:02:00
6:53 AM,66.9,63.0,87,30.03,4.0,SSW,4.6,-,N/A,,Clear,200,2013-07-05 11:53:00
7:53 AM,72.0,64.0,76,30.04,6.0,SSW,5.8,-,N/A,,Haze,210,2013-07-05 12:53:00
8:53 AM,75.9,64.0,67,30.04,8.0,SW,8.1,-,N/A,,Clear,220,2013-07-05 13:53:00
9:53 AM,79.0,63.0,58,30.04,8.0,SW,9.2,-,N/A,,Clear,220,2013-07-05 14:53:00
10:53 AM,82.0,62.1,51,30.03,10.0,South,6.9,-,N/A,,Clear,190,2013-07-05 15:53:00
11:53 AM,84.0,61.0,46,30.02,10.0,WSW,12.7,-,N/A,,Partly Cloudy,240,2013-07-05 16:53:00
12:53 PM,84.9,59.0,41,30.01,10.0,SW,12.7,-,N/A,,Partly Cloudy,220,2013-07-05 17:53:00
1:53 PM,86.0,59.0,40,30.00,10.0,SSW,11.5,21.9,N/A,,Partly Cloudy,210,2013-07-05 18:53:00
2:53 PM,86.0,57.9,38,29.99,10.0,South,12.7,24.2,N/A,,Clear,190,2013-07-05 19:53:00
3:53 PM,86.0,60.1,41,29.98,10.0,SSW,16.1,21.9,N/A,,Clear,210,2013-07-05 20:53:00
4:53 PM,86.0,60.1,41,29.97,10.0,South,15.0,21.9,N/A,,Clear,190,2013-07-05 21:53:00
5:53 PM,84.9,61.0,44,29.96,10.0,SSW,9.2,-,N/A,,Clear,200,2013-07-05 22:53:00
6:53 PM,82.9,61.0,47,29.96,10.0,South,10.4,-,N/A,,Clear,190,2013-07-05 23:53:00
7:53 PM,80.1,62.1,54,29.97,10.0,South,9.2,-,N/A,,Clear,170,2013-07-06 00:53:00
8:53 PM,77.0,61.0,58,29.97,10.0,South,9.2,-,N/A,,Clear,180,2013-07-06 01:53:00
9:53 PM,75.0,60.1,60,29.98,10.0,South,9.2,-,N/A,,Clear,180,2013-07-06 02:53:00
10:53 PM,73.0,61.0,66,29.99,10.0,South,9.2,-,N/A,,Clear,180,2013-07-06 03:53:00
11:53 PM,72.0,61.0,68,29.99,9.0,South,6.9,-,N/A,,Clear,180,2013-07-06 04:53:00